Preview of NWS' New Version of Forecast
This preview is not operational and should not be used for support decisions.

Regional Weather Roundup (RWR)

Issued by National Weather Service (NWS)

                            
000
ASUS43 KTOP 231908
RWRKS 

WEATHER ROUNDUP FOR KANSAS
NATIONAL WEATHER SERVICE GOODLAND KS
200 PM CDT TUE APR 23 2019

NOTE:  "FAIR" INDICATES FEW OR NO CLOUDS BELOW 12,000 FEET WITH NO
SIGNIFICANT WEATHER AND/OR OBSTRUCTIONS TO VISIBILITY.

KSZ001>006-013>018-027>032-041>047-232000-
NORTHWEST KANSAS
  
CITY           SKY/WX    TMP DP  RH WIND       PRES   REMARKS
GOODLAND         N/A     63  34  33 MISG      30.10F                  
HAYS           MOSUNNY   62  36  37 NE10G20   30.10F                  
HILL CITY      CLOUDY    65  30  27 NE10G20   30.12F                  
RUSSELL        CLOUDY    60  41  49 VRB3G17   30.08F                  
$$

KSZ061>065-074>080-084>089-232000-
SOUTHWEST KANSAS
  
CITY           SKY/WX    TMP DP  RH WIND       PRES   REMARKS
DODGE CITY     CLOUDY    59  27  29 N15G24    30.09F                  
ELKHART        DRIZZLE   54  37  53 NE8       30.15S                  
GARDEN CITY    CLOUDY    57  33  40 N10       30.10F                  
GREAT BEND       N/A     53  46  77 NE6       30.10F                  
PRATT          CLOUDY    52  49  90 N12       30.09F                  
$$

KSZ066>073-081>083-090>101-232000-
SOUTHEAST KANSAS
  
CITY           SKY/WX    TMP DP  RH WIND       PRES   REMARKS
CHANUTE        CLOUDY    57  51  80 NE5       30.05R                  
COFFEYVILLE    LGT RAIN  55  53  93 NE8       30.03F FOG              
HUTCHINSON     CLOUDY    53  48  83 N9        30.07F                  
MEDICINE LODGE   N/A     54  50  86 N8        30.07F                  
NEWTON         CLOUDY    52  48  86 N12       30.08                   
PARSONS        LGT RAIN  55  53  93 NE3       30.05F FOG              
WICHITA INTL   CLOUDY    56  50  80 NE9       30.06F                  
WICHITA JABRA  CLOUDY    54  49  83 NE9       30.07F                  
WICHITA MCCONL CLOUDY    54  54 100 NE8       30.06                   
WINFIELD       CLOUDY    54  52  93 N6        30.06F FOG              
$$

KSZ007>012-019>026-033>040-048>060-102>105-232000-
NORTHEAST KANSAS
  
CITY           SKY/WX    TMP DP  RH WIND       PRES   REMARKS
CONCORDIA      MOSUNNY   62  45  53 NE8       30.08F                  
EMPORIA        LGT RAIN  52  50  93 N8        30.07F FOG              
LAWRENCE       CLOUDY    54  47  77 E3        30.10F                  
MANHATTAN      CLOUDY    53  45  74 N7        30.09F                  
MARYSVILLE     CLOUDY    55  46  71 E5        30.09F                  
OLATHE IND     CLOUDY    53  47  79 N3        30.09F                  
OLATHE EXE     CLOUDY    53  47  79 CALM      30.09S                  
SALINA         CLOUDY    54  45  71 NE6       30.10F                  
TOPEKA BILLARD CLOUDY    53  45  74 N7        30.10F                  
TOPEKA FORBES  CLOUDY    53  46  77 N5        30.09F                  
$$